Time,TemperatureF,DewpointF,PressureIn,WindDirection,WindDirectionDegrees,WindSpeedMPH,WindSpeedGustMPH,Humidity,HourlyPrecipIn,Conditions,Clouds,dailyrainin,SoftwareType,DateUTC
2013-03-30 00:00:00,41.0,31.2,30.11,NW,321,0.0,0.0,68,0.00,,,0.00,Wunderground v.1.15,2013-03-30 04:00:00,
2013-03-30 00:07:00,40.9,31.0,30.11,WNW,291,0.0,4.0,68,0.00,,,0.00,weatherlink.com 1.10,2013-03-30 04:07:00,
2013-03-30 00:10:00,40.9,31.1,30.11,WNW,291,0.0,0.0,68,0.00,,,0.00,Wunderground v.1.15,2013-03-30 04:10:00,
2013-03-30 00:20:00,40.7,31.3,30.11,WNW,291,0.0,0.0,69,0.00,,,0.00,Wunderground v.1.15,2013-03-30 04:20:00,
2013-03-30 00:21:00,40.6,31.0,30.11,WNW,291,0.0,1.0,69,0.00,,,0.00,weatherlink.com 1.10,2013-03-30 04:21:00,
2013-03-30 00:30:00,40.4,31.0,30.11,WNW,291,0.0,0.0,69,0.00,,,0.00,Wunderground v.1.15,2013-03-30 04:30:00,
2013-03-30 00:38:00,40.2,31.0,30.11,WNW,291,0.0,0.0,70,0.00,,,0.00,weatherlink.com 1.10,2013-03-30 04:38:00,
2013-03-30 00:50:00,39.8,30.8,30.11,WNW,291,0.0,0.0,70,0.00,,,0.00,Wunderground v.1.15,2013-03-30 04:50:00,
2013-03-30 01:00:00,39.2,30.9,30.11,WNW,291,0.0,0.0,72,0.00,,,0.00,Wunderground v.1.15,2013-03-30 05:00:00,
2013-03-30 01:08:00,38.8,30.0,30.11,WNW,291,0.0,1.0,72,0.00,,,0.00,weatherlink.com 1.10,2013-03-30 05:08:00,
2013-03-30 01:20:00,38.5,30.6,30.11,WNW,291,0.0,0.0,73,0.00,,,0.00,Wunderground v.1.15,2013-03-30 05:20:00,
2013-03-30 01:30:00,38.4,30.5,30.10,WNW,291,0.0,2.0,73,0.00,,,0.00,Wunderground v.1.15,2013-03-30 05:30:00,
2013-03-30 01:38:00,37.9,30.0,30.11,WNW,290,0.0,2.0,74,0.00,,,0.00,weatherlink.com 1.10,2013-03-30 05:38:00,
2013-03-30 01:50:00,37.7,30.5,30.11,WNW,291,0.0,2.0,75,0.00,,,0.00,Wunderground v.1.15,2013-03-30 05:50:00,
2013-03-30 02:00:00,37.7,30.8,30.11,WNW,297,0.0,0.0,76,0.00,,,0.00,Wunderground v.1.15,2013-03-30 06:00:00,
2013-03-30 02:09:00,37.5,31.0,30.11,WNW,302,0.0,4.0,76,0.00,,,0.00,weatherlink.com 1.10,2013-03-30 06:09:00,
2013-03-30 02:20:00,37.4,30.8,30.10,WNW,302,0.0,0.0,77,0.00,,,0.00,Wunderground v.1.15,2013-03-30 06:20:00,
2013-03-30 02:30:00,37.6,31.0,30.10,West,279,0.0,2.0,77,0.00,,,0.00,Wunderground v.1.15,2013-03-30 06:30:00,
2013-03-30 02:38:00,37.8,31.0,30.10,West,280,0.0,3.0,77,0.00,,,0.00,weatherlink.com 1.10,2013-03-30 06:38:00,
2013-03-30 02:50:00,38.3,31.7,30.10,NW,305,1.0,1.0,77,0.00,,,0.00,Wunderground v.1.15,2013-03-30 06:50:00,
2013-03-30 03:00:00,38.3,31.4,30.10,WNW,296,1.0,1.0,76,0.00,,,0.00,Wunderground v.1.15,2013-03-30 07:00:00,
2013-03-30 03:08:00,38.0,31.0,30.10,NW,309,0.0,7.0,77,0.00,,,0.00,weatherlink.com 1.10,2013-03-30 07:08:00,
2013-03-30 03:20:00,37.8,31.2,30.10,NW,307,0.0,1.0,77,0.00,,,0.00,Wunderground v.1.15,2013-03-30 07:20:00,
2013-03-30 03:30:00,37.6,31.4,30.10,NW,309,0.0,0.0,78,0.00,,,0.00,Wunderground v.1.15,2013-03-30 07:30:00,
2013-03-30 03:38:00,37.6,31.0,30.10,NW,312,1.0,3.0,78,0.00,,,0.00,weatherlink.com 1.10,2013-03-30 07:38:00,
2013-03-30 03:50:00,37.7,31.5,30.10,WNW,302,1.0,1.0,78,0.00,,,0.00,Wunderground v.1.15,2013-03-30 07:50:00,
2013-03-30 04:00:00,37.9,31.3,30.10,WNW,286,1.0,1.0,77,0.00,,,0.00,Wunderground v.1.15,2013-03-30 08:00:00,
2013-03-30 04:09:00,37.9,31.0,30.11,WNW,292,1.0,4.0,77,0.00,,,0.00,weatherlink.com 1.10,2013-03-30 08:09:00,
2013-03-30 04:20:00,37.8,31.2,30.10,NNW,337,0.0,0.0,77,0.00,,,0.00,Wunderground v.1.15,2013-03-30 08:20:00,
2013-03-30 04:30:00,37.8,31.6,30.10,WNW,292,1.0,1.0,78,0.00,,,0.00,Wunderground v.1.15,2013-03-30 08:30:00,
2013-03-30 04:39:00,37.8,32.0,30.10,NW,314,0.0,4.0,78,0.00,,,0.00,weatherlink.com 1.10,2013-03-30 08:39:00,
2013-03-30 04:50:00,37.9,31.7,30.10,NW,306,1.0,1.0,78,0.00,,,0.00,Wunderground v.1.15,2013-03-30 08:50:00,
2013-03-30 05:00:00,37.6,31.4,30.10,WNW,290,0.0,1.0,78,0.00,,,0.00,Wunderground v.1.15,2013-03-30 09:00:00,
2013-03-30 05:09:00,37.5,31.0,30.10,NW,313,0.0,5.0,78,0.00,,,0.00,weatherlink.com 1.10,2013-03-30 09:09:00,
2013-03-30 05:20:00,37.4,31.2,30.10,WNW,297,0.0,0.0,78,0.00,,,0.00,Wunderground v.1.15,2013-03-30 09:20:00,
2013-03-30 05:30:00,37.3,31.1,30.10,NW,306,0.0,0.0,78,0.00,,,0.00,Wunderground v.1.15,2013-03-30 09:30:00,
2013-03-30 05:40:00,37.2,31.0,30.10,WNW,300,0.0,0.0,78,0.00,,,0.00,Wunderground v.1.15,2013-03-30 09:40:00,
2013-03-30 05:50:00,37.2,31.0,30.11,WNW,292,0.0,0.0,78,0.00,,,0.00,Wunderground v.1.15,2013-03-30 09:50:00,
2013-03-30 06:00:00,37.2,31.0,30.11,WNW,292,0.0,1.0,78,0.00,,,0.00,Wunderground v.1.15,2013-03-30 10:00:00,
2013-03-30 06:10:00,37.1,31.0,30.11,WNW,290,0.0,6.0,78,0.00,,,0.00,weatherlink.com 1.10,2013-03-30 10:10:00,
2013-03-30 06:20:00,36.9,30.4,30.11,WNW,288,0.0,2.0,77,0.00,,,0.00,Wunderground v.1.15,2013-03-30 10:20:00,
2013-03-30 06:25:00,37.0,30.0,30.11,WNW,298,1.0,5.0,77,0.00,,,0.00,weatherlink.com 1.10,2013-03-30 10:25:00,
2013-03-30 06:39:00,37.1,31.0,30.11,WNW,300,8.0,8.0,77,0.00,,,0.00,weatherlink.com 1.10,2013-03-30 10:39:00,
2013-03-30 06:50:00,37.4,30.5,30.12,NW,319,1.0,4.0,76,0.00,,,0.00,Wunderground v.1.15,2013-03-30 10:50:00,
2013-03-30 06:55:00,37.5,31.0,30.12,WNW,300,3.0,7.0,76,0.00,,,0.00,weatherlink.com 1.10,2013-03-30 10:55:00,
2013-03-30 07:00:00,37.6,30.7,30.12,WNW,293,2.0,2.0,76,0.00,,,0.00,Wunderground v.1.15,2013-03-30 11:00:00,
2013-03-30 07:10:00,37.6,30.4,30.12,WNW,294,1.0,1.0,75,0.00,,,0.00,Wunderground v.1.15,2013-03-30 11:10:00,
2013-03-30 07:20:00,37.7,30.5,30.13,WNW,295,1.0,2.0,75,0.00,,,0.00,Wunderground v.1.15,2013-03-30 11:20:00,
2013-03-30 07:25:00,37.8,31.0,30.13,NW,321,3.0,7.0,75,0.00,,,0.00,weatherlink.com 1.10,2013-03-30 11:25:00,
2013-03-30 07:40:00,38.1,30.9,30.13,NNW,335,1.0,2.0,75,0.00,,,0.00,Wunderground v.1.15,2013-03-30 11:40:00,
2013-03-30 07:50:00,38.4,30.8,30.13,West,277,1.0,1.0,74,0.00,,,0.00,Wunderground v.1.15,2013-03-30 11:50:00,
2013-03-30 07:55:00,38.7,31.0,30.13,WNW,298,1.0,5.0,74,0.00,,,0.00,weatherlink.com 1.10,2013-03-30 11:55:00,
2013-03-30 08:00:00,39.0,31.1,30.13,NNW,327,1.0,1.0,73,0.00,,,0.00,Wunderground v.1.15,2013-03-30 12:00:00,
2013-03-30 08:10:00,39.5,31.2,30.14,NW,321,1.0,1.0,72,0.00,,,0.00,Wunderground v.1.15,2013-03-30 12:10:00,
2013-03-30 08:20:00,40.1,31.4,30.14,WNW,295,2.0,2.0,71,0.00,,,0.00,Wunderground v.1.15,2013-03-30 12:20:00,
2013-03-30 08:25:00,40.5,31.0,30.14,NW,309,0.0,9.0,70,0.00,,,0.00,weatherlink.com 1.10,2013-03-30 12:25:00,
2013-03-30 08:40:00,41.3,31.9,30.14,NW,306,2.0,2.0,69,0.00,,,0.00,Wunderground v.1.15,2013-03-30 12:40:00,
2013-03-30 08:50:00,42.0,31.8,30.14,NW,317,1.0,2.0,67,0.00,,,0.00,Wunderground v.1.15,2013-03-30 12:50:00,
2013-03-30 08:55:00,42.3,31.0,30.14,NNW,336,0.0,8.0,65,0.00,,,0.00,weatherlink.com 1.10,2013-03-30 12:55:00,
2013-03-30 09:00:00,42.6,31.7,30.14,NNW,331,2.0,2.0,65,0.00,,,0.00,Wunderground v.1.15,2013-03-30 13:00:00,
2013-03-30 09:10:00,43.2,32.2,30.14,NW,317,1.0,1.0,65,0.00,,,0.00,Wunderground v.1.15,2013-03-30 13:10:00,
2013-03-30 09:20:00,43.8,31.6,30.14,NW,314,2.0,2.0,62,0.00,,,0.00,Wunderground v.1.15,2013-03-30 13:20:00,
2013-03-30 09:26:00,44.0,32.0,30.14,West,278,4.0,6.0,63,0.00,,,0.00,weatherlink.com 1.10,2013-03-30 13:26:00,
2013-03-30 09:40:00,45.1,32.0,30.15,NW,311,1.0,1.0,60,0.00,,,0.00,Wunderground v.1.15,2013-03-30 13:40:00,
2013-03-30 09:50:00,45.3,31.8,30.15,NNW,336,3.0,3.0,59,0.00,,,0.00,Wunderground v.1.15,2013-03-30 13:50:00,
2013-03-30 09:56:00,45.6,32.0,30.14,WSW,243,4.0,7.0,59,0.00,,,0.00,weatherlink.com 1.10,2013-03-30 13:56:00,
2013-03-30 10:10:00,46.4,31.5,30.14,WNW,284,2.0,2.0,56,0.00,,,0.00,Wunderground v.1.15,2013-03-30 14:10:00,
2013-03-30 10:20:00,46.8,31.9,30.14,NNW,336,1.0,1.0,56,0.00,,,0.00,Wunderground v.1.15,2013-03-30 14:20:00,
2013-03-30 10:27:00,47.5,32.0,30.14,North,349,2.0,7.0,55,0.00,,,0.00,weatherlink.com 1.10,2013-03-30 14:27:00,
2013-03-30 10:40:00,48.0,30.7,30.14,NW,304,2.0,2.0,51,0.00,,,0.00,Wunderground v.1.15,2013-03-30 14:40:00,
2013-03-30 10:50:00,48.8,30.0,30.14,WNW,288,2.0,4.0,48,0.00,,,0.00,Wunderground v.1.15,2013-03-30 14:50:00,
2013-03-30 10:57:00,48.9,30.0,30.13,North,360,0.0,9.0,48,0.00,,,0.00,weatherlink.com 1.10,2013-03-30 14:57:00,
2013-03-30 11:10:00,49.7,30.8,30.13,WSW,244,3.0,5.0,48,0.00,,,0.00,Wunderground v.1.15,2013-03-30 15:10:00,
2013-03-30 11:20:00,50.2,30.7,30.13,NW,307,3.0,3.0,47,0.00,,,0.00,Wunderground v.1.15,2013-03-30 15:20:00,
2013-03-30 11:28:00,50.3,30.0,30.12,NNE,21,1.0,6.0,46,0.00,,,0.00,weatherlink.com 1.10,2013-03-30 15:28:00,
2013-03-30 11:40:00,50.6,28.9,30.12,WSW,240,3.0,3.0,43,0.00,,,0.00,Wunderground v.1.15,2013-03-30 15:40:00,
2013-03-30 11:50:00,51.0,28.7,30.12,NW,307,3.0,3.0,42,0.00,,,0.00,Wunderground v.1.15,2013-03-30 15:50:00,
2013-03-30 11:57:00,51.8,29.0,30.12,WNW,300,0.0,8.0,41,0.00,,,0.00,weatherlink.com 1.10,2013-03-30 15:57:00,
2013-03-30 12:10:00,51.3,27.2,30.11,NNE,22,4.0,4.0,39,0.00,,,0.00,Wunderground v.1.15,2013-03-30 16:10:00,
2013-03-30 12:20:00,52.3,29.3,30.11,NNW,327,3.0,3.0,41,0.00,,,0.00,Wunderground v.1.15,2013-03-30 16:20:00,
2013-03-30 12:27:00,52.9,28.0,30.11,NW,314,0.0,11.0,38,0.00,,,0.00,weatherlink.com 1.10,2013-03-30 16:27:00,
2013-03-30 12:40:00,52.1,27.2,30.10,NW,321,4.0,8.0,38,0.00,,,0.00,Wunderground v.1.15,2013-03-30 16:40:00,
2013-03-30 12:50:00,51.9,27.1,30.10,North,355,4.0,6.0,38,0.00,,,0.00,Wunderground v.1.15,2013-03-30 16:50:00,
2013-03-30 12:58:00,51.8,25.0,30.10,NE,52,4.0,7.0,36,0.00,,,0.00,weatherlink.com 1.10,2013-03-30 16:58:00,
2013-03-30 13:10:00,52.4,27.5,30.09,SW,221,2.0,2.0,38,0.00,,,0.00,Wunderground v.1.15,2013-03-30 17:10:00,
2013-03-30 13:20:00,53.5,26.5,30.08,West,279,4.0,4.0,35,0.00,,,0.00,Wunderground v.1.15,2013-03-30 17:20:00,
2013-03-30 13:28:00,54.5,27.0,30.08,NNW,329,4.0,8.0,35,0.00,,,0.00,weatherlink.com 1.10,2013-03-30 17:28:00,
2013-03-30 13:40:00,55.1,26.5,30.07,NW,308,4.0,4.0,33,0.00,,,0.00,Wunderground v.1.15,2013-03-30 17:40:00,
2013-03-30 13:50:00,54.6,27.5,30.07,NNW,338,3.0,3.0,35,0.00,,,0.00,Wunderground v.1.15,2013-03-30 17:50:00,
2013-03-30 13:58:00,54.5,26.0,30.07,WSW,253,0.0,10.0,34,0.00,,,0.00,weatherlink.com 1.10,2013-03-30 17:58:00,
2013-03-30 14:10:00,55.2,25.8,30.06,WNW,300,3.0,4.0,32,0.00,,,0.00,Wunderground v.1.15,2013-03-30 18:10:00,
2013-03-30 14:20:00,55.5,24.5,30.06,NNW,343,4.0,6.0,30,0.00,,,0.00,Wunderground v.1.15,2013-03-30 18:20:00,
2013-03-30 14:29:00,54.3,24.0,30.06,North,5,1.0,14.0,31,0.00,,,0.00,weatherlink.com 1.10,2013-03-30 18:29:00,
2013-03-30 14:40:00,54.3,24.3,30.06,North,350,5.0,7.0,31,0.00,,,0.00,Wunderground v.1.15,2013-03-30 18:40:00,
2013-03-30 14:50:00,54.2,24.9,30.06,NNW,348,2.0,3.0,32,0.00,,,0.00,Wunderground v.1.15,2013-03-30 18:50:00,
2013-03-30 14:59:00,54.7,22.0,30.05,North,360,3.0,7.0,28,0.00,,,0.00,weatherlink.com 1.10,2013-03-30 18:59:00,
2013-03-30 15:10:00,55.6,23.0,30.05,NW,321,2.0,4.0,28,0.00,,,0.00,Wunderground v.1.15,2013-03-30 19:10:00,
2013-03-30 15:20:00,56.1,24.2,30.05,SW,221,5.0,5.0,29,0.00,,,0.00,Wunderground v.1.15,2013-03-30 19:20:00,
2013-03-30 15:29:00,55.6,24.0,30.05,North,355,5.0,11.0,29,0.00,,,0.00,weatherlink.com 1.10,2013-03-30 19:29:00,
2013-03-30 15:40:00,55.1,23.4,30.05,NW,323,4.0,4.0,29,0.00,,,0.00,Wunderground v.1.15,2013-03-30 19:40:00,
2013-03-30 15:50:00,54.8,23.9,30.05,NNW,340,4.0,4.0,30,0.00,,,0.00,Wunderground v.1.15,2013-03-30 19:50:00,
2013-03-30 15:59:00,54.6,24.0,30.05,North,9,4.0,7.0,30,0.00,,,0.00,weatherlink.com 1.10,2013-03-30 19:59:00,
2013-03-30 16:10:00,54.1,24.1,30.04,NNE,17,3.0,3.0,31,0.00,,,0.00,Wunderground v.1.15,2013-03-30 20:10:00,
2013-03-30 16:20:00,54.1,24.1,30.04,NNE,15,2.0,4.0,31,0.00,,,0.00,Wunderground v.1.15,2013-03-30 20:20:00,
2013-03-30 16:30:00,53.9,24.7,30.04,West,277,2.0,2.0,32,0.00,,,0.00,Wunderground v.1.15,2013-03-30 20:30:00,
2013-03-30 16:40:00,54.0,24.8,30.04,WNW,299,2.0,2.0,32,0.00,,,0.00,Wunderground v.1.15,2013-03-30 20:40:00,
2013-03-30 16:50:00,54.1,24.1,30.04,NW,319,1.0,1.0,31,0.00,,,0.00,Wunderground v.1.15,2013-03-30 20:50:00,
2013-03-30 16:59:00,54.4,24.0,30.04,WNW,294,0.0,9.0,31,0.00,,,0.00,weatherlink.com 1.10,2013-03-30 20:59:00,
2013-03-30 17:10:00,55.3,23.5,30.04,North,351,3.0,6.0,29,0.00,,,0.00,Wunderground v.1.15,2013-03-30 21:10:00,
2013-03-30 17:15:00,55.3,24.0,30.04,NNW,335,6.0,6.0,30,0.00,,,0.00,weatherlink.com 1.10,2013-03-30 21:15:00,
2013-03-30 17:30:00,55.6,23.0,30.04,NNW,347,4.0,4.0,28,0.00,,,0.00,Wunderground v.1.15,2013-03-30 21:30:00,
2013-03-30 17:40:00,55.6,23.0,30.04,NNW,335,4.0,5.0,28,0.00,,,0.00,Wunderground v.1.15,2013-03-30 21:40:00,
2013-03-30 17:45:00,55.5,23.0,30.04,NNW,341,0.0,6.0,28,0.00,,,0.00,weatherlink.com 1.10,2013-03-30 21:45:00,
2013-03-30 18:00:00,55.3,23.0,30.05,NNW,342,3.0,8.0,28,0.00,,,0.00,weatherlink.com 1.10,2013-03-30 22:00:00,
2013-03-30 18:10:00,55.0,23.3,30.05,WNW,296,3.0,3.0,29,0.00,,,0.00,Wunderground v.1.15,2013-03-30 22:10:00,
2013-03-30 18:20:00,54.7,23.0,30.05,North,11,3.0,5.0,29,0.00,,,0.00,Wunderground v.1.15,2013-03-30 22:20:00,
2013-03-30 18:30:00,54.4,22.8,30.05,WNW,287,3.0,3.0,29,0.00,,,0.00,Wunderground v.1.15,2013-03-30 22:30:00,
2013-03-30 18:40:00,54.1,22.5,30.05,North,9,2.0,2.0,29,0.00,,,0.00,Wunderground v.1.15,2013-03-30 22:40:00,
2013-03-30 18:46:00,54.0,23.0,30.05,WNW,300,4.0,6.0,30,0.00,,,0.00,weatherlink.com 1.10,2013-03-30 22:46:00,
2013-03-30 19:00:00,53.6,22.9,30.06,NW,315,1.0,1.0,30,0.00,,,0.00,Wunderground v.1.15,2013-03-30 23:00:00,
2013-03-30 19:10:00,53.3,22.6,30.06,NNW,344,1.0,1.0,30,0.00,,,0.00,Wunderground v.1.15,2013-03-30 23:10:00,
2013-03-30 19:15:00,53.2,23.0,30.06,NNW,341,0.0,5.0,31,0.00,,,0.00,weatherlink.com 1.10,2013-03-30 23:15:00,
2013-03-30 19:30:00,52.5,22.7,30.06,NW,323,0.0,0.0,31,0.00,,,0.00,Wunderground v.1.15,2013-03-30 23:30:00,
2013-03-30 19:40:00,52.1,23.1,30.06,NW,323,0.0,0.0,32,0.00,,,0.00,Wunderground v.1.15,2013-03-30 23:40:00,
2013-03-30 19:45:00,51.9,23.0,30.06,NW,323,0.0,1.0,32,0.00,,,0.00,weatherlink.com 1.10,2013-03-30 23:45:00,
2013-03-30 20:00:00,51.2,22.3,30.07,NW,323,0.0,0.0,32,0.00,,,0.00,Wunderground v.1.15,2013-03-31 00:00:00,
2013-03-30 20:10:00,50.8,22.7,30.07,NW,323,0.0,0.0,33,0.00,,,0.00,Wunderground v.1.15,2013-03-31 00:10:00,
2013-03-30 20:17:00,50.5,22.0,30.07,NW,323,0.0,0.0,33,0.00,,,0.00,weatherlink.com 1.10,2013-03-31 00:17:00,
2013-03-30 20:30:00,49.8,23.2,30.08,NW,323,0.0,0.0,35,0.00,,,0.00,Wunderground v.1.15,2013-03-31 00:30:00,
2013-03-30 20:40:00,49.4,22.9,30.08,NW,323,0.0,0.0,35,0.00,,,0.00,Wunderground v.1.15,2013-03-31 00:40:00,
2013-03-30 20:47:00,48.9,23.0,30.08,NW,323,0.0,0.0,36,0.00,,,0.00,weatherlink.com 1.10,2013-03-31 00:47:00,
2013-03-30 21:00:00,48.2,22.5,30.08,NW,323,0.0,0.0,36,0.00,,,0.00,Wunderground v.1.15,2013-03-31 01:00:00,
2013-03-30 21:10:00,47.7,22.7,30.08,NW,323,0.0,0.0,37,0.00,,,0.00,Wunderground v.1.15,2013-03-31 01:10:00,
2013-03-30 21:17:00,47.2,22.0,30.08,NW,323,0.0,0.0,37,0.00,,,0.00,weatherlink.com 1.10,2013-03-31 01:17:00,
2013-03-30 21:30:00,46.9,22.0,30.08,NW,323,0.0,0.0,37,0.00,,,0.00,Wunderground v.1.15,2013-03-31 01:30:00,
2013-03-30 21:40:00,46.7,22.4,30.08,NW,323,0.0,0.0,38,0.00,,,0.00,Wunderground v.1.15,2013-03-31 01:40:00,
2013-03-30 21:46:00,46.2,22.0,30.09,NW,323,0.0,0.0,38,0.00,,,0.00,weatherlink.com 1.10,2013-03-31 01:46:00,
2013-03-30 22:00:00,46.0,21.8,30.09,NW,323,0.0,0.0,38,0.00,,,0.00,Wunderground v.1.15,2013-03-31 02:00:00,
2013-03-30 22:10:00,46.0,21.8,30.09,NW,323,0.0,0.0,38,0.00,,,0.00,Wunderground v.1.15,2013-03-31 02:10:00,
2013-03-30 22:17:00,46.0,21.0,30.09,NW,323,0.0,0.0,38,0.00,,,0.00,weatherlink.com 1.10,2013-03-31 02:17:00,
2013-03-30 22:30:00,46.1,21.9,30.09,NW,323,0.0,0.0,38,0.00,,,0.00,Wunderground v.1.15,2013-03-31 02:30:00,
2013-03-30 22:40:00,45.5,22.5,30.09,NW,323,0.0,0.0,40,0.00,,,0.00,Wunderground v.1.15,2013-03-31 02:40:00,
2013-03-30 22:47:00,44.9,22.0,30.09,NW,323,0.0,0.0,40,0.00,,,0.00,weatherlink.com 1.10,2013-03-31 02:47:00,
2013-03-30 23:00:00,44.2,22.0,30.09,NW,323,0.0,0.0,41,0.00,,,0.00,Wunderground v.1.15,2013-03-31 03:00:00,
2013-03-30 23:10:00,43.8,21.6,30.09,NW,323,0.0,0.0,41,0.00,,,0.00,Wunderground v.1.15,2013-03-31 03:10:00,
2013-03-30 23:17:00,43.8,22.0,30.10,NW,323,0.0,0.0,42,0.00,,,0.00,weatherlink.com 1.10,2013-03-31 03:17:00,
2013-03-30 23:30:00,43.3,21.7,30.09,NW,323,0.0,0.0,42,0.00,,,0.00,Wunderground v.1.15,2013-03-31 03:30:00,
2013-03-30 23:40:00,43.1,22.1,30.10,NW,323,0.0,0.0,43,0.00,,,0.00,Wunderground v.1.15,2013-03-31 03:40:00,
2013-03-30 23:47:00,42.9,21.0,30.10,NW,323,0.0,0.0,42,0.00,,,0.00,weatherlink.com 1.10,2013-03-31 03:47:00,